カタログに戻る

VNREDSAT 1

運用中科学SSO
NORAD 39160·PAYLOAD·🇻🇳 Vietnam

打ち上げ May 7, 2013 から Guiana Space Centre

Loading…

次のパス (今後24時間)

TLE

最新Source: Space-Track

元期: Sep 14, 2026, 21:58 UTC

1 39160U 13021B   26257.91555568  .00000183  00000-0  42745-4 0  9990
2 39160  97.8993 307.8388 0001254  82.5181 277.6165 14.64743798713424

AllMySatでVNREDSAT 1をリアルタイム追跡

Download on the App Store